This is the latest recevied weather packets stored in our database for station/object K0FJ-1. If no packets are shown the sender has not sent any weather packets the latest 10 day(s).
| Time | Temp. | Humidity | Pressure | Rain* | Wind** | Luminosity | Snow |
|---|---|---|---|---|---|---|---|
| 1787418003 | 27.22° C | 64% | 1024.3 hPa | 0 mm | - | - | - |
| 1787417703 | 27.22° C | 64% | 1024.4 hPa | 0 mm | - | - | - |
| 1787417403 | 26.67° C | 65% | 1024.4 hPa | 0 mm | - | - | - |
| 1787417103 | 26.67° C | 65% | 1024.5 hPa | 0 mm | - | - | - |
| 1787416803 | 26.67° C | 68% | 1024.5 hPa | 0 mm | - | - | - |
| 1787416503 | 26.11° C | 66% | 1024.4 hPa | 0 mm | - | - | - |
| 1787416203 | 26.11° C | 67% | 1024.5 hPa | 0 mm | - | - | - |
| 1787415903 | 25.56° C | 67% | 1024.5 hPa | 0 mm | - | - | - |
| 1787415603 | 25.56° C | 67% | 1024.5 hPa | 0 mm | - | - | - |
| 1787415303 | 25° C | 68% | 1024.5 hPa | 0 mm | - | - | - |
| 1787415004 | 25° C | 70% | 1024.4 hPa | 0 mm | - | - | - |
| 1787414703 | 24.44° C | 70% | 1024.4 hPa | 0 mm | - | - | - |
| 1787414403 | 24.44° C | 70% | 1024.3 hPa | 0 mm | - | - | - |
| 1787414105 | 23.89° C | 70% | 1024.1 hPa | 0 mm | - | - | - |
| 1787413805 | 23.89° C | 71% | 1024 hPa | 0 mm | - | - | - |
| 1787413503 | 23.89° C | 71% | 1024 hPa | 0 mm | - | - | - |
| 1787413204 | 23.33° C | 71% | 1024 hPa | 0 mm | - | - | - |
| 1787412903 | 23.33° C | 71% | 1023.9 hPa | 0 mm | - | - | - |
| 1787412603 | 23.33° C | 73% | 1023.8 hPa | 0 mm | - | - | - |
| 1787412303 | 22.78° C | 73% | 1023.8 hPa | 0 mm | - | - | - |
| 1787412003 | 22.78° C | 72% | 1023.8 hPa | 0 mm | - | - | - |
| 1787411703 | 22.78° C | 73% | 1023.8 hPa | 0 mm | - | - | - |
| 1787411403 | 22.78° C | 72% | 1023.8 hPa | 0 mm | - | - | - |
| 1787411103 | 22.78° C | 74% | 1023.9 hPa | 0 mm | - | - | - |
| 1787410803 | 22.22° C | 74% | 1024 hPa | 0 mm | - | - | - |
* Rain latest hour (hover to see other rain measurements)
** Current wind speed in m/s (hover to see current wind gust speed)